| time (UTC) | temp F | wind direction | speed MPH | gust MPH | rain 1hr in | rain 24hr in | rain mn in | humidity % | barometer mb |
| 20260906044546 | 64 | 56 | 0.0 | 3.0 | 0.00 | 0.00 | 0.00 | 48 | 1018.1 |
| 20260906043043 | 65 | 0 | 1.0 | 6.0 | 0.00 | 0.00 | 0.00 | 46 | 1018.2 |
| 20260906041554 | 66 | 91 | 2.0 | 6.0 | 0.00 | 0.00 | 0.00 | 45 | 1018.1 |
| 20260906040047 | 66 | 85 | 1.0 | 5.0 | 0.00 | 0.00 | 0.00 | 45 | 1017.9 |
| 20260906034547 | 66 | 51 | 4.0 | 7.0 | 0.00 | 0.00 | 0.00 | 44 | 1017.8 |
| 20260906033041 | 66 | 82 | 3.0 | 6.0 | 0.00 | 0.00 | 0.00 | 44 | 1017.7 |
| 20260906031550 | 67 | 53 | 2.0 | 5.0 | 0.00 | 0.00 | 0.00 | 42 | 1017.8 |
| 20260906030046 | 68 | 53 | 2.0 | 4.0 | 0.00 | 0.00 | 0.00 | 42 | 1017.6 |
| 20260906024558 | 69 | 66 | 3.0 | 4.0 | 0.00 | 0.00 | 0.00 | 43 | 1017.4 |
| 20260906023053 | 71 | 70 | 2.0 | 5.0 | 0.00 | 0.00 | 0.00 | 38 | 1017.2 |
| 20260906021552 | 72 | 104 | 4.0 | 7.0 | 0.00 | 0.00 | 0.00 | 37 | 1017.1 |
| 20260906020050 | 73 | 96 | 2.0 | 5.0 | 0.00 | 0.00 | 0.00 | 38 | 1016.8 |
| 20260906014602 | 74 | 83 | 3.0 | 6.0 | 0.00 | 0.00 | 0.00 | 37 | 1016.6 |
| 20260906013045 | 76 | 85 | 2.0 | 6.0 | 0.00 | 0.00 | 0.00 | 33 | 1016.5 |
| 20260906011545 | 77 | 87 | 3.0 | 8.0 | 0.00 | 0.00 | 0.00 | 31 | 1016.4 |
| 20260906010043 | 78 | 72 | 6.0 | 9.0 | 0.00 | 0.00 | 0.00 | 30 | 1016.2 |
| 20260906004549 | 79 | 100 | 3.0 | 8.0 | 0.00 | 0.00 | 0.00 | 33 | 1016.2 |
| 20260906003102 | 79 | 87 | 4.0 | 8.0 | 0.00 | 0.00 | 0.00 | 28 | 1016.1 |
| 20260906001554 | 80 | 91 | 4.0 | 9.0 | 0.00 | 0.00 | 0.00 | 28 | 1016.1 |
| 20260905234548 | 80 | 75 | 5.0 | 10.0 | 0.00 | 0.00 | 0.00 | 28 | 1016.2 |
| 20260905233048 | 80 | 101 | 5.0 | 8.0 | 0.00 | 0.00 | 0.00 | 27 | 1016.2 |
| 20260905231544 | 80 | 80 | 5.0 | 10.0 | 0.00 | 0.00 | 0.00 | 29 | 1016.2 |
| 20260905230049 | 80 | 129 | 3.0 | 8.0 | 0.00 | 0.00 | 0.00 | 27 | 1016.3 |
| 20260905224542 | 80 | 70 | 4.0 | 9.0 | 0.00 | 0.00 | 0.00 | 30 | 1016.2 |
| 20260905223050 | 79 | 131 | 5.0 | 11.0 | 0.00 | 0.00 | 0.00 | 29 | 1016.2 |
| 20260905221545 | 79 | 108 | 3.0 | 10.0 | 0.00 | 0.00 | 0.00 | 29 | 1016.4 |
| 20260905220052 | 79 | 114 | 6.0 | 10.0 | 0.00 | 0.00 | 0.00 | 29 | 1016.6 |
| 20260905214546 | 78 | 86 | 2.0 | 13.0 | 0.00 | 0.00 | 0.00 | 31 | 1016.7 |
| 20260905213054 | 78 | 132 | 6.0 | 13.0 | 0.00 | 0.00 | 0.00 | 30 | 1016.7 |
| 20260905211553 | 79 | 86 | 3.0 | 9.0 | 0.00 | 0.00 | 0.00 | 30 | 1016.8 |
| 20260905210049 | 79 | 103 | 2.0 | 6.0 | 0.00 | 0.00 | 0.00 | 32 | 1017.0 |
| 20260905204556 | 78 | 86 | 5.0 | 9.0 | 0.00 | 0.00 | 0.00 | 30 | 1017.0 |
| 20260905203056 | 78 | 108 | 2.0 | 9.0 | 0.00 | 0.00 | 0.00 | 31 | 1017.3 |
| 20260905201552 | 76 | 91 | 6.0 | 12.0 | 0.00 | 0.00 | 0.00 | 33 | 1017.4 |
| 20260905200056 | 76 | 84 | 5.0 | 13.0 | 0.00 | 0.00 | 0.00 | 32 | 1017.4 |
| 20260905194549 | 75 | 101 | 7.0 | 13.0 | 0.00 | 0.00 | 0.00 | 33 | 1017.4 |
| 20260905193047 | 75 | 124 | 3.0 | 11.0 | 0.00 | 0.00 | 0.00 | 33 | 1017.7 |
| 20260905191557 | 75 | 115 | 4.0 | 9.0 | 0.00 | 0.00 | 0.00 | 34 | 1017.7 |
| 20260905190058 | 74 | 95 | 4.0 | 13.0 | 0.00 | 0.00 | 0.00 | 36 | 1017.7 |
| 20260905184550 | 74 | 105 | 7.0 | 13.0 | 0.00 | 0.00 | 0.00 | 35 | 1018.0 |
| 20260905183058 | 75 | 101 | 2.0 | 5.0 | 0.00 | 0.00 | 0.00 | 36 | 1018.1 |
| 20260905181550 | 72 | 103 | 4.0 | 9.0 | 0.00 | 0.00 | 0.00 | 39 | 1018.3 |
| 20260905180047 | 73 | 98 | 3.0 | 7.0 | 0.00 | 0.00 | 0.00 | 37 | 1018.6 |
| 20260905174544 | 72 | 140 | 2.0 | 9.0 | 0.00 | 0.00 | 0.00 | 38 | 1018.6 |
| 20260905173051 | 70 | 120 | 3.0 | 9.0 | 0.00 | 0.00 | 0.00 | 40 | 1018.7 |
| 20260905171546 | 71 | 92 | 2.0 | 6.0 | 0.00 | 0.00 | 0.00 | 40 | 1018.8 |
| 20260905170047 | 70 | 113 | 3.0 | 7.0 | 0.00 | 0.00 | 0.00 | 40 | 1018.9 |
| 20260905164543 | 69 | 85 | 4.0 | 9.0 | 0.00 | 0.00 | 0.00 | 42 | 1018.9 |
| 20260905163047 | 69 | 85 | 1.0 | 7.0 | 0.00 | 0.00 | 0.00 | 43 | 1019.0 |
| 20260905161544 | 68 | 83 | 2.0 | 5.0 | 0.00 | 0.00 | 0.00 | 46 | 1019.0 |
| 20260905160055 | 66 | 41 | 2.0 | 4.0 | 0.00 | 0.00 | 0.00 | 45 | 1019.1 |
| 20260905154554 | 65 | 0 | 2.0 | 7.0 | 0.00 | 0.00 | 0.00 | 48 | 1019.1 |
| 20260905153055 | 63 | 65 | 1.0 | 4.0 | 0.00 | 0.00 | 0.00 | 53 | 1019.1 |
| 20260905151552 | 62 | 66 | 1.0 | 5.0 | 0.00 | 0.00 | 0.00 | 55 | 1019.3 |
| 20260905150056 | 60 | 323 | 0.0 | 2.0 | 0.00 | 0.00 | 0.00 | 58 | 1019.3 |
| 20260905144549 | 57 | 0 | 1.0 | 2.0 | 0.00 | 0.00 | 0.00 | 61 | 1019.2 |
| 20260905143054 | 55 | 310 | 0.0 | 2.0 | 0.00 | 0.00 | 0.00 | 68 | 1019.2 |
| 20260905141546 | 53 | 321 | 1.0 | 2.0 | 0.00 | 0.00 | 0.00 | 69 | 1019.1 |
| 20260905140057 | 53 | 283 | 0.0 | 3.0 | 0.00 | 0.00 | 0.00 | 68 | 1019.1 |
| 20260905134543 | 52 | 271 | 0.0 | 2.0 | 0.00 | 0.00 | 0.00 | 69 | 1018.8 |
| 20260905133049 | 53 | 247 | 0.0 | 1.0 | 0.00 | 0.00 | 0.00 | 66 | 1018.7 |
| 20260905131550 | 51 | 238 | 2.0 | 3.0 | 0.00 | 0.00 | 0.00 | 68 | 1018.3 |
| 20260905130053 | 52 | 237 | 0.0 | 3.0 | 0.00 | 0.00 | 0.00 | 65 | 1017.9 |
| 20260905124550 | 53 | 90 | 2.0 | 9.0 | 0.00 | 0.00 | 0.00 | 60 | 1017.7 |
| 20260905123049 | 53 | 69 | 2.0 | 5.0 | 0.00 | 0.00 | 0.00 | 60 | 1017.3 |
| 20260905121544 | 54 | 101 | 3.0 | 10.0 | 0.00 | 0.00 | 0.00 | 60 | 1017.1 |
| 20260905120043 | 54 | 74 | 4.0 | 10.0 | 0.00 | 0.00 | 0.00 | 60 | 1016.8 |
| 20260905114548 | 54 | 61 | 6.0 | 11.0 | 0.00 | 0.00 | 0.00 | 60 | 1016.5 |
| 20260905113044 | 55 | 72 | 6.0 | 15.0 | 0.00 | 0.00 | 0.00 | 58 | 1016.4 |
| 20260905111557 | 55 | 70 | 7.0 | 14.0 | 0.00 | 0.00 | 0.00 | 57 | 1016.1 |
| 20260905110041 | 56 | 82 | 6.0 | 10.0 | 0.00 | 0.00 | 0.00 | 57 | 1015.9 |
| 20260905104547 | 56 | 97 | 6.0 | 10.0 | 0.00 | 0.00 | 0.00 | 56 | 1016.2 |
| 20260905103045 | 56 | 82 | 5.0 | 9.0 | 0.00 | 0.00 | 0.00 | 55 | 1015.9 |
| 20260905101553 | 57 | 72 | 3.0 | 9.0 | 0.00 | 0.00 | 0.00 | 55 | 1015.7 |
| 20260905100105 | 57 | 83 | 5.0 | 13.0 | 0.00 | 0.00 | 0.00 | 54 | 1015.9 |
| 20260905094549 | 58 | 70 | 5.0 | 10.0 | 0.00 | 0.00 | 0.00 | 53 | 1016.2 |
| 20260905093044 | 58 | 83 | 2.0 | 7.0 | 0.00 | 0.00 | 0.00 | 53 | 1015.9 |
| 20260905091600 | 58 | 102 | 2.0 | 9.0 | 0.00 | 0.00 | 0.00 | 53 | 1015.6 |
| 20260905090047 | 58 | 93 | 5.0 | 11.0 | 0.00 | 0.00 | 0.00 | 53 | 1015.6 |
| 20260905084553 | 58 | 67 | 5.0 | 12.0 | 0.00 | 0.00 | 0.00 | 53 | 1015.4 |
| 20260905083048 | 58 | 35 | 6.0 | 10.0 | 0.00 | 0.00 | 0.00 | 53 | 1015.3 |
| 20260905081552 | 59 | 98 | 3.0 | 8.0 | 0.00 | 0.00 | 0.00 | 53 | 1015.5 |
| 20260905080056 | 59 | 69 | 4.0 | 8.0 | 0.00 | 0.00 | 0.00 | 53 | 1015.6 |
| 20260905074544 | 60 | 82 | 4.0 | 6.0 | 0.00 | 0.00 | 0.00 | 51 | 1015.5 |
| 20260905073055 | 62 | 65 | 4.0 | 10.0 | 0.00 | 0.00 | 0.00 | 49 | 1015.6 |
| 20260905071556 | 64 | 49 | 5.0 | 15.0 | 0.00 | 0.00 | 0.00 | 46 | 1015.7 |
| 20260905070050 | 64 | 63 | 6.0 | 11.0 | 0.00 | 0.00 | 0.00 | 45 | 1015.6 |
| 20260905064548 | 65 | 86 | 4.0 | 9.0 | 0.00 | 0.00 | 0.00 | 45 | 1015.8 |
| 20260905063100 | 65 | 79 | 3.0 | 6.0 | 0.00 | 0.00 | 0.00 | 44 | 1015.9 |
| 20260905061609 | 65 | 75 | 1.0 | 4.0 | 0.00 | 0.00 | 0.00 | 45 | 1015.5 |
| 20260905060052 | 65 | 91 | 2.0 | 5.0 | 0.00 | 0.00 | 0.00 | 44 | 1015.6 |
| 20260905054547 | 66 | 89 | 4.0 | 7.0 | 0.00 | 0.00 | 0.00 | 44 | 1015.3 |
| 20260905053053 | 66 | 101 | 5.0 | 6.0 | 0.00 | 0.00 | 0.00 | 44 | 1014.9 |
| 20260905051550 | 66 | 122 | 2.0 | 7.0 | 0.00 | 0.00 | 0.00 | 44 | 1014.7 |
| 20260905050055 | 66 | 312 | 1.0 | 4.0 | 0.00 | 0.00 | 0.00 | 43 | 1014.4 |